Regional Weather Roundup
Issued by NWS Kansas City/Pleasant Hill, MO

Home | Current Version | Previous Version | Text Only | Print | Product List | Glossary On
Versions: 1 2 3 4 5 6 7 8 9 10 11 12 13 14 15 16 17 18 19 20 21 22 23 24 25 26 27 28 29 30 31 32 33 34 35 36 37 38 39 40 41 42 43 44 45 46 47 48 49 50
000
ASUS43 KEAX 211010
RWREAX

WEATHER ROUNDUP FOR EASTERN KANSAS AND NORTHWEST MISSOURI
NATIONAL WEATHER SERVICE KANSAS CITY/PLEASANT HILL MO
500 AM CDT TUE APR 21 2015

KSZ040-057-103>105-MOZ028-029-037-043-211100-
...KANSAS CITY METROPOLITAN AREA...

CITY           SKY/WX    TMP DP  RH WIND       PRES   REMARKS
K.C. INTL      CLOUDY    44  33  65 SW7       29.85S
K.C. DOWNTOWN  CLOUDY    47  33  58 CALM      29.86S
LEES SUMMIT    MOCLDY    45  32  60 SW3       29.86S
OLATHE - IXD   PTCLDY    44  34  67 SW6       29.87S
OLATHE - OJC   PTCLDY    47  32  56 W5        29.86R
LAWRENCE       PTCLDY    38  34  85 NW5       29.87S WCI  34

$$

MOZ001>008-011>017-020>025-030>033-038>040-044>046-053-054-211100-
...NORTHERN AND CENTRAL MISSOURI...

CITY           SKY/WX    TMP DP  RH WIND       PRES   REMARKS
ST. JOSEPH     CLOUDY    46  31  55 W9        29.84S
MOSBY          CLOUDY    43  32  65 SW5       29.85S
WARRENSBURG    FAIR      45  34  65 SW7       29.86R
WHITEMAN AFB   FAIR      45  33  64 SW8       29.85R
CLINTON        PTCLDY    45  37  76 SW7       29.88S
SEDALIA        CLEAR     45  34  65 W8        29.86R
WARSAW         NOT AVBL
MARSHALL       PTCLDY    46  36  66 W6        29.85F
CHILLICOTHE      N/A     46  30  53 W5        29.83S
MOBERLY        PTCLDY    43  30  61 SW9       29.81F
KIRKSVILLE     MOCLDY    44  27  51 W9        29.79S

$$

MOZ041-047>049-056>058-063>065-088>090-097-211100-
...EASTERN AND SOUTHERN MISSOURI...

CITY           SKY/WX    TMP DP  RH WIND       PRES   REMARKS
ST. LOUIS INTL PTCLDY    47  28  47 SW12      29.82S
SPIRIT OF STL  CLEAR     45  29  53 SW10      29.82S
COLUMBIA       CLEAR     44  32  62 W9        29.84R
JEFFERSON CITY CLEAR     45  30  55 NW3       29.85S
MEXICO         CLEAR     45  36  70 SW9       29.82S
HANNIBAL       PTCLDY    43  28  56 SW8       29.78S
ROLLA          CLEAR     41  30  65 SW12      29.84F WCI  34
LEBANON        CLEAR     46  32  57 SW8       29.88F
OSAGE BEACH    PTCLDY    45  30  57 SW6       29.87F
SPRINGFIELD    PTCLDY    43  34  70 SW10      29.90S
BRANSON        PTCLDY    46  32  57 SW6       29.94S
NEVADA         MOCLDY    48  37  66 CALM      29.90S
JOPLIN         CLEAR     48  36  63 SW12      29.93R
WEST PLAINS    CLEAR     41  31  67 SW5       29.93S

$$

IAZ060-094-KSZ022-034>040-054-083-096-NEZ052-066-093-211100-
...KANSAS...SOUTHEAST NEBRASKA AND IOWA...

CITY           SKY/WX    TMP DP  RH WIND       PRES   REMARKS
TOPEKA         CLEAR     42  33  70 W5        29.88S
MANHATTAN      PTCLDY    35  32  88 SW3       29.87F
EMPORIA        CLEAR     47  37  68 SW9       29.87F
CHANUTE        MOCLDY    47  39  74 SW8       29.90F
WICHITA        PTCLDY    46  38  73 W3        29.90F
OMAHA          PTCLDY    42  24  49 W12       29.81S
LINCOLN        PTCLDY    44  30  57 W7        29.86S
FALLS CITY     CLOUDY    45  31  58 W14       29.84R
LAMONI         MOCLDY    41  27  57 W13       29.78S WCI  34
DES MOINES     CLEAR     38  21  50 W6        29.76R WCI  33

$$




USA.gov is the U.S. government's official web portal to all federal, state and local government web resources and services.